{"data":{"norad_id":59517,"epoch":"2026-05-24T15:34:33.290688Z","epoch_age_seconds":102389,"freshness":"FRESH","line1":"1 59517U 24073G   26144.64899642 -.00000619  00000+0 -12981-4 0  9990","line2":"2 59517  43.0029 248.9568 0001020 268.5382  91.5353 15.27572025117793","mean_motion":15.27572025,"eccentricity":0.000102,"inclination_deg":43.0029,"raan_deg":248.9568,"arg_perigee_deg":268.5382,"mean_anomaly_deg":91.5353,"bstar":-1.2981e-5,"rev_number":11779,"period_min":94.267240852359,"perigee_km":482.37313274497,"apogee_km":483.7728195801,"semimajor_km":6861.2099761625,"source":"CELESTRAK","updated_at":"2026-05-25T13:38:18.974939Z"}}